Address 0xf7c79d5f3b77193aafc74a5b0ff3f1db18ae47b1 16

Overview

Balance:
11.446631781495162871 AVAX

Token:
My Name Tag:
Not Available

Txn Hash Method
Block
From
To
Value [Txn Fee]
0x2b95d94944c5e93fd05919f9b30de0bfcc2fa52abbcbe247a4127aa2be26df30Buy100298932022-05-24 4:54:284 days 8 hrs ago0xf7c79d5f3b77193aafc74a5b0ff3f1db18ae47b1OUT0xfb9b74bfec44155752b867b43b649e2eb36e0b8a0.169929309405 AVAX0.0024957525
0xc23a1c25da92788aea9a8e2f0e3fbfea672e4e02b99aed5ee7b10f7501962f1dTransfer100297442022-05-24 4:47:014 days 8 hrs ago0xf7c79d5f3b77193aafc74a5b0ff3f1db18ae47b1OUT0xb79dedbe9a3bfac8395ec1e2de6ab9839ce8837f2 AVAX0.00052525
0x9a04da0b2b70682a4292386a676529e954e7756576bc5200e2b0fa53a73b07c9Transfer56143342022-02-03 4:45:00114 days 8 hrs ago0xf7c79d5f3b77193aafc74a5b0ff3f1db18ae47b1OUT0x20326eb316afd6faf15b07793adf6f1f5e46571b30 AVAX0.00052525
0x82be52de4fa05a25fe817432f8449e0f94f2e03e2d317fec06e1c299954ed30dTransfer18516182021-09-29 12:32:10241 days 1 hr ago0x17ce8ec991a1ec29ce79edcb8bb1ccadf7943823 IN 0xf7c79d5f3b77193aafc74a5b0ff3f1db18ae47b10.781883973935848 AVAX0.00052525
0xba36bbbdb16081735c237786d379b071f258107cd264b3d63314e000a8a782acTransfer18516102021-09-29 12:30:43241 days 1 hr ago0xe9d28c18fee0f7c77a8df285700a537e218ee02c IN 0xf7c79d5f3b77193aafc74a5b0ff3f1db18ae47b10.704721816631525 AVAX0.00052525
0x6d87c027b2cfe92339504c8a293b297d306f72e737bac7223a452f06998f6da6Transfer18515972021-09-29 12:29:08241 days 1 hr ago0x8ae16152abf6f8f2566b656a623f320ada677d42 IN 0xf7c79d5f3b77193aafc74a5b0ff3f1db18ae47b15.791884051707875 AVAX0.00052525
0x121f6e38b0f7c13f1b2515b2d85d313683767f7d1bae25284fd4d1dd96636871Transfer18515862021-09-29 12:27:49241 days 1 hr ago0xd7f5b95450c5b19621364fd83b622492f976eaa0 IN 0xf7c79d5f3b77193aafc74a5b0ff3f1db18ae47b16.315945172702879 AVAX0.00052525
0xca21ff24d931c8c9d7e73f6e7a26e93b671048de155f6c6709a79d3df2a40eceTransfer18515832021-09-29 12:27:25241 days 1 hr ago0x77057cbea3d8f706268f4a62aebf36685177e9ef IN 0xf7c79d5f3b77193aafc74a5b0ff3f1db18ae47b14.074816980346143 AVAX0.00052525
0x6650c840ff375002c168005b2461de70165836afa217d62233b1930ef686f06aTransfer18515792021-09-29 12:27:03241 days 1 hr ago0x736479235ebb34459ca80628a0388af7092823db IN 0xf7c79d5f3b77193aafc74a5b0ff3f1db18ae47b14.088200658978781 AVAX0.00052525
0x9f5b311502e47b80af018ec15b0102b14bcf56c2ffed42b1f50401f1a13173f1Transfer18515762021-09-29 12:26:43241 days 1 hr ago0x533a9b84ca3f288f90b860009ee9be690f494d99 IN 0xf7c79d5f3b77193aafc74a5b0ff3f1db18ae47b14.077168046914458 AVAX0.00052525
0xc0dd5ce59a514188d3826f47fd3ba701c2bba03dadd8ce31744c1d6c92e25d69Transfer18515722021-09-29 12:26:12241 days 1 hr ago0xa41d87689edd3a96ac6bc4cc1bdc482af5a68631 IN 0xf7c79d5f3b77193aafc74a5b0ff3f1db18ae47b14.076778843593421 AVAX0.00052525
0x2c063dcbd908945bda1ae97c93f23675420f2f4f946cf65f7456c7f2e0a2124cTransfer18515682021-09-29 12:25:49241 days 1 hr ago0xd2b44ea765a19e9c82221f36ba72fe1d0af72177 IN 0xf7c79d5f3b77193aafc74a5b0ff3f1db18ae47b14.076992731366164 AVAX0.00052525
0xcead53545a61061606b19429fdbd9e1c39763239991aa7d09f7c6ebe11dda813Transfer18515642021-09-29 12:24:55241 days 1 hr ago0x1b83d1e055743ebc2db8dfd75bb85946f2d3aae5 IN 0xf7c79d5f3b77193aafc74a5b0ff3f1db18ae47b14.646762880197923 AVAX0.00052525
0xbc912243171f18e69a6604618da0fcc69febc5c2344d91b0c42aec3e1193e0b3Transfer18515592021-09-29 12:24:18241 days 1 hr ago0xa887f6fdba3e5539f0def01a87ae1cb8a4f7995f IN 0xf7c79d5f3b77193aafc74a5b0ff3f1db18ae47b14.74527353213572 AVAX0.00052525
0x47a1470a6aca631afb773074fd393a18421e1e139d8f7adecacb9d48651d4e81Transfer13643432021-09-11 16:08:12258 days 21 hrs ago0xf7c79d5f3b77193aafc74a5b0ff3f1db18ae47b1OUT0x20326eb316afd6faf15b07793adf6f1f5e46571b8 AVAX0.00159676
0x7620fb0516c3a9a4db68e900966122ea2234ff70b48bae4a99ad69b5fd0d754dSwap Exact Token...13643192021-09-11 16:06:59258 days 21 hrs ago0xf7c79d5f3b77193aafc74a5b0ff3f1db18ae47b1OUT 0x7e3411b04766089cfaa52db688855356a12f05d10 AVAX0.01315552476
0xf7df7fb568bd9460583c4dd23665610e48b849b71426e7640ed94c0f77ca4137Swap Exact Token...13643122021-09-11 16:06:38258 days 21 hrs ago0xf7c79d5f3b77193aafc74a5b0ff3f1db18ae47b1OUT 0x7e3411b04766089cfaa52db688855356a12f05d10 AVAX0.01337493676
0x241b0d7effe246ed573acc76c9cb048019bdba8f51085304548fb40bd91bc4bfSwap Exact Token...13643012021-09-11 16:06:05258 days 21 hrs ago0xf7c79d5f3b77193aafc74a5b0ff3f1db18ae47b1OUT 0x7e3411b04766089cfaa52db688855356a12f05d10 AVAX0.01315917276
0x171602349559598e1b177f5426650fc0e85321ed6717478d5a291ec6f4d4b51bRemove Liquidity...13642092021-09-11 16:01:42258 days 21 hrs ago0xf7c79d5f3b77193aafc74a5b0ff3f1db18ae47b1OUT 0x7e3411b04766089cfaa52db688855356a12f05d10 AVAX0.01586705276
0x62d05c8cae80ee26279bd2d720b0b87a8d971fdbfda23ab45e495d935fc565f4Remove Liquidity...13641952021-09-11 16:00:59258 days 21 hrs ago0xf7c79d5f3b77193aafc74a5b0ff3f1db18ae47b1OUT 0x7e3411b04766089cfaa52db688855356a12f05d10 AVAX0.0166679476
0x580a5b8b8423245fe4e3c2881264512d42215b3ed9f09042bba773c6a5b766a3Withdraw13641722021-09-11 15:59:49258 days 21 hrs ago0xf7c79d5f3b77193aafc74a5b0ff3f1db18ae47b1OUT0xf0b6db3ee1a7349ea8d3a38ba839d255cd75eddf0 AVAX0.01096930876
0x9ca90d98932e7fb7e951e1adb3df9b7af221b0bfff7f2202187134780e22c30eDeposit13641682021-09-11 15:59:37258 days 21 hrs ago0xf7c79d5f3b77193aafc74a5b0ff3f1db18ae47b1OUT0xf0b6db3ee1a7349ea8d3a38ba839d255cd75eddf0 AVAX0.00810707276
0x4604d121cd60a01de52178ef52c50ff1008ec792caf8deef2ef2e601935547ccWithdraw13641572021-09-11 15:59:16258 days 21 hrs ago0xf7c79d5f3b77193aafc74a5b0ff3f1db18ae47b1OUT0xf0b6db3ee1a7349ea8d3a38ba839d255cd75eddf0 AVAX0.0109702276
0x44787d7ee1bdd199341c9f7041bfa345569a637d61868a13f4f4ffa59ebc5109Deposit13641532021-09-11 15:59:03258 days 21 hrs ago0xf7c79d5f3b77193aafc74a5b0ff3f1db18ae47b1OUT0xf0b6db3ee1a7349ea8d3a38ba839d255cd75eddf0 AVAX0.00526976476
0x2907b05208b9d836c4a045278db41e02f859164c79d346c6d22dc13656e982aeDeposit13519322021-09-11 6:01:29259 days 7 hrs ago0xf7c79d5f3b77193aafc74a5b0ff3f1db18ae47b1OUT0xf0b6db3ee1a7349ea8d3a38ba839d255cd75eddf0 AVAX0.00620594835789.501555507
[ Download CSV Export 
Latest 4 internal transactions
Parent Txn Hash Block From To Value
0x7620fb0516c3a9a4db68e900966122ea2234ff70b48bae4a99ad69b5fd0d754d13643192021-09-11 16:06:59258 days 21 hrs ago 0x7e3411b04766089cfaa52db688855356a12f05d10xf7c79d5f3b77193aafc74a5b0ff3f1db18ae47b13.191315894600085869 AVAX
0xf7df7fb568bd9460583c4dd23665610e48b849b71426e7640ed94c0f77ca413713643122021-09-11 16:06:38258 days 21 hrs ago 0x7e3411b04766089cfaa52db688855356a12f05d10xf7c79d5f3b77193aafc74a5b0ff3f1db18ae47b12.984256677490898545 AVAX
0x241b0d7effe246ed573acc76c9cb048019bdba8f51085304548fb40bd91bc4bf13643012021-09-11 16:06:05258 days 21 hrs ago 0x7e3411b04766089cfaa52db688855356a12f05d10xf7c79d5f3b77193aafc74a5b0ff3f1db18ae47b11.118783321798287387 AVAX
0xa4a96904e43c0c832e2b8dad0bb5ac9caca7fbf1fc1e72e8de08dcbaa4d660b612222892021-09-08 5:29:02262 days 8 hrs ago 0x7e3411b04766089cfaa52db688855356a12f05d10xf7c79d5f3b77193aafc74a5b0ff3f1db18ae47b11.45287486387036451 AVAX
[ Download CSV Export 
Loading

Contract Name:
0

Compiler Version
0

Optimization Enabled:
0

Other Settings:
-NA-
Block Transaction Gas Used Reward
Age Block Fee Address BC Fee Address Voting Power Jailed Incoming
Block Uncle Number Difficulty Gas Used Reward
Loading